Regional Weather Roundup
Issued by NWS

Home | Current Version | Previous Version | Text Only | Print | Product List | Glossary Off
Versions: 1 2 3 4 5 6 7 8 9 10 11 12 13 14 15 16 17 18 19 20 21 22 23 24 25 26 27 28 29 30 31 32 33 34 35 36 37 38 39 40 41 42 43 44 45 46 47 48 49 50

000
ASUS43 KOAX 240202
RWRNE

WEATHER ROUNDUP FOR NEBRASKA
NATIONAL WEATHER SERVICE OMAHA NE
900 PM CDT MON APR 23 2018

NOTES: SATELLITE DATA IS BEING USED TO AUGMENT CLOUD COVER ABOVE
       12000 FEET.
       "FAIR" INDICATES FEW OR NO CLOUDS BELOW 12,000 FEET WITH NO
       SIGNIFICANT WEATHER AND/OR OBSTRUCTIONS TO VISIBILITY.


NEZ001>004-019>022-054>056-240300-
NEBRASKA PANHANDLE

CITY           SKY/WX    TMP DP  RH WIND       PRES   REMARKS
SCOTTSBLUFF    RAIN      45  45 100 NW23G40   30.18R
ALLIANCE       LGT RAIN  47  45  93 N25G32    30.09R
CHADRON        RAIN      41  38  89 W20G31    30.18R
GORDON         RAIN      51  47  86 W20G36    30.09R
KIMBALL        TSTM      46  45  95 N29G41    30.16R
SIDNEY         CLOUDY    58  43  57 CALM      30.04R
$$

NEZ057>060-069>072-079>082-240300-
SOUTHWEST NEBRASKA

CITY           SKY/WX    TMP DP  RH WIND       PRES   REMARKS
NORTH PLATTE   CLEAR     57  40  52 S7        30.04R
IMPERIAL       CLEAR     53  40  61 E8        30.03R
LEXINGTON      PTCLDY    58  40  52 SE7       30.06R
MCCOOK         PTCLDY    57  41  55 SE8       30.04R
OGALLALA       PTCLDY    58  40  50 SE5       30.02S
$$

NEZ005>010-023>029-035>040-094-240300-
NORTH CENTRAL NEBRASKA

CITY           SKY/WX    TMP DP  RH WIND       PRES   REMARKS
VALENTINE      CLOUDY    62  41  46 SE7       30.05
AINSWORTH      PTCLDY    55  41  59 SE7       30.06S
BROKEN BOW     PTCLDY    56  40  55 E5        30.06R
O`NEILL        MOCLDY    62  35  36 E3        30.08R
ORD            PTCLDY    53  36  52 CALM      30.06R
THEDFORD       CLEAR     58  41  53 SE6       30.07R
$$

NEZ041-046>049-061>064-073>077-083>087-240300-
SOUTH CENTRAL NEBRASKA

CITY           SKY/WX    TMP DP  RH WIND       PRES   REMARKS
GRAND ISLAND   PTCLDY    62  41  46 CALM      30.07R
AURORA         CLOUDY    59  35  39 SE6       30.06S
HASTINGS       CLOUDY    63  37  38 CALM      30.07R
HEBRON         CLEAR     59  35  40 CALM      30.05S
HOLDREGE       CLEAR     56  40  56 S3        30.06S
KEARNEY        CLEAR     59  41  51 SE7       30.07R
YORK             N/A     57  32  38 CALM      30.07R
$$

NEZ011>018-030>034-042>045-240300-
NORTHEAST NEBRASKA

CITY           SKY/WX    TMP DP  RH WIND       PRES   REMARKS
NORFOLK        CLOUDY    59  33  37 E3        30.07R
ALBION         CLOUDY    62  39  43 CALM      30.07S
BLAIR          CLEAR     63  31  30 NE6       30.06S
COLUMBUS       CLOUDY    60  33  36 E7        30.08R
FREMONT        CLEAR     67  30  25 E3        30.06S
TEKAMAH        CLEAR     58  31  35 E9        30.06S
WAYNE          CLEAR     55  32  42 CALM      30.08R
$$

NEZ050>053-065>068-078-088>093-240300-
SOUTHEAST NEBRASKA

CITY           SKY/WX    TMP DP  RH WIND       PRES   REMARKS
LINCOLN        CLEAR     56  32  40 NE8       30.06S
OMAHA EPPLEY   PTCLDY    64  30  27 E9        30.06R
BEATRICE       CLEAR     63  30  28 E5        30.05S
FALLS CITY     CLEAR     63  29  27 NE5       30.04R
NEBRASKA CITY  CLEAR     63  32  31 E7        30.06S
PLATTSMOUTH    CLEAR     65  29  26 E5        30.06S
$$

NEZ044-045-051>053-067-240300-
OMAHA AREA

CITY           SKY/WX    TMP DP  RH WIND       PRES   REMARKS
OMAHA EPPLEY   PTCLDY    64  30  27 E9        30.06R
BLAIR          CLEAR     63  31  30 NE6       30.06S
FREMONT        CLEAR     67  30  25 E3        30.06S
MILLARD        CLEAR     64  35  34 CALM      30.06S
PLATTSMOUTH    CLEAR     65  29  26 E5        30.06S
WAHOO          FAIR      62  22  21 CALM      30.06S
$$




USA.gov is the U.S. government's official web portal to all federal, state and local government web resources and services.